Regional Weather Roundup
Issued by NWS

Home | Current Version | Previous Version | Text Only | Print | Product List | Glossary On
Versions: 1 2 3 4 5 6 7 8 9 10 11 12 13 14 15 16 17 18 19 20 21 22 23 24 25 26 27 28 29 30 31 32 33 34 35 36 37 38 39 40 41 42 43 44 45 46 47 48 49 50
000
ASUS43 KMKX 240111
RWRWI

WISCONSIN REGIONAL WEATHER ROUNDUP
NATIONAL WEATHER SERVICE MILWAUKEE/SULLIVAN WI
800 PM CDT THU MAR 23 2017

NOTE: "FAIR" INDICATES FEW OR NO CLOUDS BELOW 12,000 FEET WITH NO
SIGNIFICANT WEATHER AND/OR OBSTRUCTIONS TO VISIBILITY.

WIZ001-002-006>008-014>016-023>028-240200-
NORTHWEST WISCONSIN

CITY           SKY/WX    TMP DP  RH WIND       PRES   REMARKS
SUPERIOR ARPT  MIX PCPN  33  32  94 NW3       29.91R
ASHLAND        LGT RAIN  36  27  69 CALM      29.88F
HAYWARD        TSTM      37  27  67 SW3       29.87S
SIREN          DRIZZLE   34  31  87 CALM      29.88S
CUMBERLAND     CLOUDY    34  28  80 CALM      29.86R
RICE LAKE      CLOUDY    39  26  59 S6        29.88R
CHETEK         CLOUDY    40  28  62 S8G18     29.87R WCI  34
LADYSMITH      LGT RAIN  38  27  66 SE7       29.88S WCI  32
EAU CLAIRE     CLOUDY    41  29  62 S10       29.88R
MENOMONIE      CLOUDY    40  32  71 SE10G16   29.88R WCI  34
NEW RICHMOND   CLOUDY    39  29  66 S9        29.86R WCI  33
OSCEOLA        DRIZZLE   39  32  76 CALM      29.90R
$$

WIZ003>005-009-010-017-018-240200-
NORTH CENTRAL WISCONSIN

CITY           SKY/WX    TMP DP  RH WIND       PRES   REMARKS
MANITOWISH WTR DRIZZLE   33  28  80 SE7       29.89F WCI  27
ARBOR VITAE    CLOUDY    37  27  67 SE8       29.88F WCI  30
WOODRUFF       CLOUDY    37  27  67 SE8       29.88F WCI  30
RHINELANDER    CLOUDY    37  24  59 VRB3      29.92R
EAGLE RIVER    CLOUDY    33  24  68 SE5       29.93R WCI  29
LAND O LAKES   CLOUDY    34  24  68 S7        29.93S WCI  28
PHILLIPS       CLOUDY    36  24  63 SE8       29.86F WCI  29
TOMAHAWK       CLOUDY    36  23  58 SE5       29.90R WCI  32
MEDFORD        RAIN      36  25  65 SE13G18   29.86F WCI  27
MERRILL        DRIZZLE   37  25  61 S8        29.90F WCI  31
$$

WIZ029-030-035-036-043>047-240200-
CENTRAL WISCONSIN

CITY           SKY/WX    TMP DP  RH WIND       PRES   REMARKS
WAUSAU         LGT RAIN  38  24  57 SE12      29.91F WCI  30
MOSINEE        TSTM      37  23  56 SE10      29.93F WCI  30
MARSHFIELD     CLOUDY    37  28  70 SE12      29.87F WCI  29
STEVENS POINT  LGT RAIN  38  25  60 SE6       29.96F WCI  33
WAUPACA        LGT RAIN  38  31  78 E10       29.98F WCI  30
WAUTOMA        LGT RAIN  39  30  70 VRB5      29.93F
WISC RAPIDS    LGT RAIN  40  30  67 S7        29.95S
CAMP DOUGLAS   CLOUDY    38  33  82 SE13      29.90F WCI  31
$$

WIZ011>013-019>022-031-037>040-048>050-240200-
NORTHEAST WISCONSIN

CITY           SKY/WX    TMP DP  RH WIND       PRES   REMARKS
ANTIGO         CLOUDY    33  26  75 SE20G25   29.93F WCI  21
SHAWANO        CLOUDY    38  27  65 SE5       30.03F WCI  34
OCONTO         CLOUDY    35  26  69 S7        30.06F WCI  29
STURGEON BAY   LGT RAIN  36  24  62 S13       30.08R WCI  27
GREEN BAY      CLOUDY    37  29  72 S12       30.06S WCI  29
MANITOWOC      LGT RAIN  38  27  64 S13       30.12R WCI  30
APPLETON       LGT RAIN  36  25  64 SE12      30.04F WCI  27
CLINTONVILLE   CLOUDY    36  27  69 SE7       30.03F WCI  30
OSHKOSH        LGT RAIN  37  29  72 S6        30.06F WCI  32
$$

WIZ032>034-041-042-053>061-240200-
SOUTHWEST WISCONSIN

CITY           SKY/WX    TMP DP  RH WIND       PRES   REMARKS
LA CROSSE      CLOUDY    40  36  86 SE10      29.88F WCI  33
SPARTA         CLOUDY    39  35  87 SE6       29.91F WCI  35
VIROQUA        MOCLDY    36  35  94 SE14      29.91R WCI  27
BOSCOBEL       CLOUDY    40  33  76 VRB5      29.91F
PRAIRIE DU CHI CLOUDY    37  36  96 SE8       29.92F WCI  31
PLATTEVILLE    MOCLDY    40  34  80 SE12      29.96F WCI  32
$$

WIZ056-057-062-063-064-067-068-240200-
SOUTH CENTRAL WISCONSIN

CITY           SKY/WX    TMP DP  RH WIND       PRES   REMARKS
REEDSBURG      CLOUDY    36  36 100 SE3       29.94F
BARABOO/DELLS  CLOUDY    36  33  89 SE14      29.94F WCI  27
LONE ROCK      CLOUDY    38  34  85 SE13      29.94F WCI  30
MINERAL POINT  CLOUDY    39  36  87 SE15      29.95F WCI  31
MADISON        CLOUDY    38  35  89 SE14      30.00R THUNDER WCI  30
MIDDLETON      CLOUDY    38  35  86 SE12      30.01R WCI  31
WATERTOWN      RAIN      38  35  89 N6        30.08R WCI  34
MONROE         CLOUDY    39  34  81 SE12      29.99S WCI  32
JANESVILLE     CLOUDY    45  34  65 S8        30.02R
$$

WIZ051-052-058>065-066-070>072-240200-
SOUTHEAST WISCONSIN

CITY           SKY/WX    TMP DP  RH WIND       PRES   REMARKS
MILWAUKEE      LGT RAIN  44  29  55 SE14G21   30.03R
WAUKESHA       RAIN      37  30  75 SW3       30.08R
MILWAUKEE/TIMM TSTM      43  27  52 SE8       30.06R
RACINE         LGT RAIN  41  31  67 S14G23    30.04R
KENOSHA        LGT RAIN  43  31  62 SE15      30.00F
FOND DU LAC    HVY RAIN  37  29  72 S13       30.05F WCI  29
SHEBOYGAN      LGT RAIN  38  27  64 S7        30.11R WCI  33
WEST BEND      RAIN      37  30  75 NW7       30.10R WCI  32
JUNEAU         RAIN      37  31  78 CALM      30.08R
$$

LSZ147-162-240200-
LAKE SUPERIOR

STATION/POSITION TIME  TEMP    WIND        PRES    WAVE
                       AIR SEA DIR/SP/G            HT/PER
                 (UTC) (F)     (DEG/KT/KT) (MB)    (FT/S)
DEVILS ISLAND    0000   34      70/  6/  6 1013.7F
PORT WING        0040   36      80/  2/  3 1012.2S
SAXON HARBOR     0030   35     200/  1/  3 1012.5F
$$

LMZ867-665-643>646-240200-
LAKE MICHIGAN

STATION/POSITION TIME  TEMP    WIND        PRES    WAVE
                       AIR SEA DIR/SP/G            HT/PER
                 (UTC) (F)     (DEG/KT/KT) (MB)    (FT/S)
CHAMBERS ISLAND  0040   36     180/  7/ 13 1018.3R
NORTHPORT PIER   0040   37     150/  5/  8 1018.3R
SISTER BAY       0005   37     170/ 16/ 22   N/A
KEWAUNEE LAKESHO 0048   38     190/ 14/ 17 1018.7R
SHEBOYGAN LAKESH 0100   39     190/ 13/ 15 1020.1R
PORT WASHINGTON  0030   39     190/ 12/ 16 1019.3R
MILWAUKEE LAKESH 0050   39     140/ 12/ 14   N/A
KENOSHA   LAKESH 0000   40     150/ 23/ 27 1016.3
$$

TC  - TEMPERATURE IN CELSIUS
VSB - VISIBILITY IN STATUTE MILES
WCI - WIND CHILL INDEX
HX  - HEAT INDEX




USA.gov is the U.S. government's official web portal to all federal, state and local government web resources and services.